Regional Weather Roundup
Issued by NWS

Home | Current Version | Previous Version | Graphics & Text | Print | Product List | Glossary On
Versions: 1 2 3 4 5 6 7 8 9 10 11 12 13 14 15 16 17 18 19 20 21 22 23 24 25 26 27 28 29 30 31 32 33 34 35 36 37 38 39 40 41 42 43 44 45 46 47 48 49 50
000
ASUS43 KLSX 240507
RWRMO

WEATHER SUMMARY FOR MISSOURI
NATIONAL WEATHER SERVICE SPRINGFIELD MO
1200 AM CDT TUE APR 24 2018

NOTE: "FAIR" INDICATES FEW OR NO CLOUDS BELOW 12,000 FEET WITH NO
       SIGNIFICANT WEATHER AND/OR OBSTRUCTIONS TO VISIBILITY.
       CURRENT SKY AND/OR WEATHER CONDITIONS ARE NOT AVAILABLE FOR
       CHILLICOTHE AND FARMINGTON.

MOZ001>031-035>038-043-044-053-054-240600-
...NORTHERN AND WESTERN MISSOURI...

CITY           SKY/WX    TMP DP  RH WIND       PRES   REMARKS
KANSAS CTY INT CLEAR     58  31  35 NE3       30.06R
KANSAS C DTWN  CLEAR     56  35  45 NW3       30.04S
LEE`S SUMMIT   CLEAR     59  32  36 CALM      30.05R
ST JOSEPH      CLEAR     50  34  54 CALM      30.06S
CHILLICOTHE      N/A     50  31  48 N3        30.06S
KIRKSVILLE     PTCLDY    52  32  46 N6        30.05S

$$
MOZ066>068-077>081-088>096-101>105-240600-
...SOUTHWEST MISSOURI...

CITY           SKY/WX    TMP DP  RH WIND       PRES   REMARKS
SPRINGFIELD    CLEAR     51  43  74 CALM      30.01R
JOPLIN         CLEAR     52  45  77 CALM      30.03S
BRANSON        PTCLDY    54  50  87 CALM      30.01S

$$
MOZ032>034-039>042-045>050-055>058-069>072-240600-
...CENTRAL MISSOURI...

CITY           SKY/WX    TMP DP  RH WIND       PRES   REMARKS
COLUMBIA       CLEAR     58  47  66 E7        30.01S
JEFFERSON CITY MOCLDY    62  51  67 E7        30.01S
ROLLA          CLOUDY    56  51  84 NE3       30.01R
SEDALIA        CLOUDY    57  37  47 N6        30.02F
WHITEMAN AFB   PTCLDY    52  35  51 N5        29.99S
WARRENSBURG    CLEAR     55  32  41 N5        30.03S

$$
MOZ051-052-059>065-240600-
...EAST CENTRAL MISSOURI...

CITY           SKY/WX    TMP DP  RH WIND       PRES   REMARKS
ST LOUIS INTL  CLOUDY    57  55  93 NE8       29.99F
SPIRIT OF STL  CLOUDY    58  54  86 NE6       29.98F
ST CHARLES     CLOUDY    57  54  89 N6        29.99S

$$
MOZ072>076-082>087-097>100-106>115-240600-
...SOUTH CENTRAL AND SOUTHEAST MISSOURI...

CITY           SKY/WX    TMP DP  RH WIND       PRES   REMARKS
CAPE GIRARDEAU FAIR      55  53  93 N5        29.92F
FARMINGTON     CLOUDY    55  54  96 N6        29.97S FOG
POPLAR BLUFF   CLOUDY    58  57  97 NW8       29.94R
WEST PLAINS    CLOUDY    56  52  86 CALM      29.98F

$$



USA.gov is the U.S. government's official web portal to all federal, state and local government web resources and services.